TimeEDT,TemperatureF,Dew PointF,Humidity,Sea Level PressureIn,VisibilityMPH,Wind Direction,Wind SpeedMPH,Gust SpeedMPH,PrecipitationIn,Events,Conditions,WindDirDegrees,DateUTC
12:00 AM,38.3,36.1,92,29.90,-9999.0,North,4.6,-,N/A,,Unknown,350,2012-10-17 04:00:00
2:00 AM,40,36,82,29.92,,North,2.3,,,,,0,2012-10-17 06:00:00
2:00 AM,39.6,36.3,88,29.92,-9999.0,North,2.3,-,N/A,,Unknown,360,2012-10-17 06:00:00
3:00 AM,39.0,34.5,84,29.90,-9999.0,ENE,5.8,-,N/A,,Unknown,70,2012-10-17 07:00:00
4:00 AM,41.5,37.6,86,29.91,-9999.0,SW,9.2,-,N/A,,Unknown,220,2012-10-17 08:00:00
5:00 AM,49,44,79,29.91,,SSW,10.4,,,,,200,2012-10-17 09:00:00
5:00 AM,49.5,44.4,83,29.91,-9999.0,SSW,10.4,-,N/A,,Unknown,200,2012-10-17 09:00:00
6:00 AM,51.1,44.6,78,29.91,-9999.0,South,12.7,-,N/A,,Unknown,180,2012-10-17 10:00:00
7:00 AM,51.6,43.9,75,29.92,-9999.0,South,10.4,-,N/A,,Unknown,180,2012-10-17 11:00:00
8:00 AM,52,46,73,29.91,,SSE,15.0,,,,,160,2012-10-17 12:00:00
8:00 AM,52.2,45.9,79,29.91,-9999.0,SSE,15.0,-,N/A,,Unknown,160,2012-10-17 12:00:00
9:00 AM,52.9,45.3,75,29.92,-9999.0,SSE,15.0,-,N/A,,Unknown,160,2012-10-17 13:00:00
10:00 AM,53.8,46.0,75,29.91,-9999.0,South,17.3,-,N/A,,Unknown,180,2012-10-17 14:00:00
11:00 AM,55,45,61,29.91,,South,16.1,,,,,180,2012-10-17 15:00:00
11:00 AM,55.0,45.3,70,29.91,-9999.0,South,16.1,-,N/A,,Unknown,180,2012-10-17 15:00:00
12:00 PM,55.2,47.3,75,29.89,-9999.0,South,17.3,-,N/A,,Unknown,170,2012-10-17 16:00:00
1:00 PM,57.2,47.7,70,29.87,-9999.0,South,18.4,-,N/A,,Unknown,170,2012-10-17 17:00:00
2:00 PM,59,48,58,29.85,,SSE,16.1,,,,,150,2012-10-17 18:00:00
2:00 PM,59.0,48.2,67,29.85,-9999.0,SSE,16.1,-,N/A,,Unknown,150,2012-10-17 18:00:00
3:00 PM,59.9,48.7,67,29.83,-9999.0,SE,13.8,-,N/A,,Unknown,140,2012-10-17 19:00:00
4:00 PM,59.0,50.2,73,29.81,-9999.0,ESE,11.5,-,N/A,,Unknown,110,2012-10-17 20:00:00
5:00 PM,60,50,61,29.82,,East,8.1,,,,,90,2012-10-17 21:00:00
5:00 PM,59.5,50.2,71,29.82,-9999.0,East,8.1,-,N/A,,Unknown,90,2012-10-17 21:00:00
6:00 PM,59.2,52.2,78,29.82,-9999.0,East,9.2,-,N/A,,Unknown,90,2012-10-17 22:00:00
7:00 PM,60.4,51.1,71,29.82,-9999.0,ESE,15.0,-,N/A,,Unknown,110,2012-10-17 23:00:00
8:00 PM,60,51,63,29.82,,ESE,17.3,,,,,120,2012-10-18 00:00:00
8:00 PM,60.1,50.7,71,29.82,-9999.0,ESE,17.3,-,N/A,,Unknown,120,2012-10-18 00:00:00
9:00 PM,59.5,51.1,74,29.82,-9999.0,SE,20.7,-,N/A,,Unknown,130,2012-10-18 01:00:00
10:00 PM,60.6,50.0,68,29.81,-9999.0,SSE,21.9,-,N/A,,Unknown,150,2012-10-18 02:00:00
11:00 PM,60,50,60,29.82,,SSE,23.0,,,,,150,2012-10-18 03:00:00
11:00 PM,60.1,49.6,68,29.82,-9999.0,SSE,23.0,-,N/A,,Unknown,150,2012-10-18 03:00:00